SCP
0 0 0 0 0 0 0 0 0 0 0 0 0 0 0 0 0 0 0 0 0 0 1 2 1 0 0 0 0 0 0 -0 -0 -0 -1 -1 -1 -1 -1 -1 -1 -1 -0 -0
0 0 0 0 0 0 0 0 0 0 0 0 0 0 0 0 0 0 0 0 0 0 0 2 2 2 0 0 0 0 0 0 0 0 0 0 -0 -0 -0 -0 -0 -0 -0 0
0 0 0 0 0 0 0 0 0 0 0 0 0 0 0 0 0 0 0 0 0 0 0 1 1 2 1 1 1 1 1 1 1 1 1 1 1 0 0 0 0 0 0 0
0 0 -0 0 0 0 0 0 0 0 0 0 0 0 0 0 0 0 0 0 0 0 0 0 1 2 2 1 2 1 1 1 1 2 2 1 1 1 1 1 0 0 0 0
0 0 0 -0 0 0 0 0 0 0 0 0 0 0 0 0 0 0 0 0 0 0 0 0 0 1 2 1 2 3 3 2 2 3 3 2 2 2 1 1 2 1 1 1
0 0 0 0 0 0 0 0 0 0 0 0 0 1 0 1 0 0 0 0 0 -0 0 0 1 1 2 1 1 2 3 3 3 5 4 4 3 2 3 2 2 2 1 1
0 0 0 0 0 0 0 0 0 0 0 0 0 0 1 0 0 0 0 0 0 0 -0 0 0 1 1 2 1 2 2 2 1 3 6 7 6 5 3 3 3 3 3 3
0 0 0 0 0 0 0 0 0 0 0 0 0 0 0 0 0 0 0 0 0 0 0 0 0 1 1 2 2 2 2 0 3 5 4 8 9 8 5 4 4 3 4 2
0 0 0 0 0 0 0 0 0 0 0 0 0 0 0 0 0 0 0 0 0 0 0 0 1 1 2 2 2 3 4 -1 2 5 6 8 12 10 6 3 3 2 1 1
0 0 0 0 0 0 0 0 0 0 0 0 0 0 0 0 0 0 0 0 0 0 0 0 0 1 2 3 3 3 4 3 6 6 9 5 2 0 0 0 1 1 1 1
0 0 0 0 0 0 1 0 0 0 0 0 0 0 0 0 0 0 0 0 0 0 -0 -0 0 1 3 3 4 3 4 7 9 8 4 3 1 0 0 0 0 1 1 2
0 0 0 0 0 0 0 0 0 0 0 0 0 0 0 0 0 0 0 0 0 0 0 -0 0 1 3 3 4 3 5 11 11 5 3 2 0 0 0 0 0 0 0 1
0 0 0 0 0 0 0 0 0 0 0 0 0 0 0 0 0 0 0 0 0 0 0 0 0 1 2 4 4 3 7 11 7 7 5 2 1 0 0 0 0 0 0 0
0 0 0 0 0 0 0 0 0 0 0 0 0 0 0 0 0 0 0 0 0 0 0 1 1 1 2 3 6 8 4 3 4 6 4 3 1 0 0 0 0 0 0 0
0 0 0 0 0 0 0 0 0 0 0 0 0 0 0 1 0 0 0 -0 0 0 0 0 1 1 1 2 4 4 4 3 2 2 2 1 1 2 0 0 0 0 0 0
0 0 0 0 0 0 -0 0 -0 0 0 0 0 0 1 0 0 0 0 -0 -0 0 0 0 0 0 1 2 2 2 2 1 2 3 3 5 4 1 0 0 -0 0 0 0
0 0 0 0 -0 -0 0 0 0 0 0 0 0 1 0 0 0 0 -0 -0 -0 0 0 0 1 0 1 1 2 2 4 3 1 1 1 0 1 1 0 0 0 0 0 0
0 0 -0 0 -0 -0 -0 0 1 0 0 1 1 0 0 0 0 0 -0 -0 0 0 0 0 0 0 1 1 2 2 1 1 1 1 1 1 1 0 1 1 0 0 0 0
0 0 0 -0 0 -0 -0 0 0 0 0 0 0 0 0 0 0 0 -0 -0 0 0 0 0 0 0 1 1 1 1 1 1 1 1 1 1 0 0 0 0 0 0 0 0
0 0 0 0 -0 0 -0 0 0 0 0 0 0 0 0 0 0 0 -0 -0 0 -0 0 0 0 0 1 1 0 1 1 1 1 0 0 1 1 1 1 0 0 0 0 0
0 0 0 0 0 -0 -0 0 0 0 0 0 0 0 0 -0 0 -0 -0 -0 0 0 0 0 0 0 1 0 0 0 0 0 0 1 1 1 1 0 0 0 0 0 0 0
0 0 0 0 0 0 0 0 0 0 0 0 0 0 -0 -0 0 -0 0 -0 0 0 0 0 0 0 0 0 0 0 0 0 0 0 0 0 0 0 0 0 0 0 0 0
0 0 0 0 0 0 0 0 0 0 0 0 0 0 -0 -0 -0 -0 -0 -0 -0 0 0 0 0 0 0 0 0 0 0 0 0 0 0 0 0 0 0 0 0 0 0 0
-0 0 0 0 0 0 0 0 0 0 0 0 0 0 0 0 0 0 -0 -0 -0 -0 -0 -0 -0 0 0 0 0 0 0 0 0 0 0 0 0 0 0 0 0 0 0 0
0 0 0 0 0 0 0 0 0 0 0 0 0 0 0 0 0 0 -0 -0 -0 -0 -0 -0 -0 0 -0 -0 0 0 0 -0 0 0 0 0 0 0 0 0 0 0 0 0
0 0 0 0 0 0 0 0 0 0 0 0 0 0 0 0 0 0 0 0 -0 -0 -0 -0 -0 0 -0 -0 -0 -0 0 0 0 0 0 0 0 0 0 0 0 0 0 0
0 0 0 0 0 0 0 0 0 0 0 0 0 0 0 0 0 0 0 0 -0 -0 -0 -0 -0 -0 -0 -0 -0 -0 -0 -0 -0 -0 0 0 0 0 0 0 0 0 0 0
Wind_Speed_500mb
34 38 31 24 36 38 27 30 38 38 36 26 20 18 17 4 19 15 21 27 27 24 27 22 14 37 40 46 46 48 51 51 54 51 47 45 46 46 43 44 42 40 40 41
40 43 32 47 34 39 39 37 35 38 43 37 24 18 10 11 15 17 14 20 21 23 21 18 15 19 36 44 48 50 59 57 52 56 50 53 51 47 43 42 38 37 38 39
34 36 34 40 41 41 38 44 36 37 39 31 30 23 10 2 12 15 15 20 21 21 21 20 20 20 28 43 50 60 60 69 63 63 60 59 54 48 44 42 39 40 38 38
28 33 42 36 37 33 36 35 42 38 37 37 26 17 12 14 22 11 18 23 24 25 26 28 28 27 29 29 46 56 60 70 72 68 60 57 55 49 47 45 42 40 36 34
28 32 41 43 34 27 28 38 39 42 44 58 38 11 11 29 19 4 20 28 28 30 33 35 33 31 29 28 39 54 63 71 77 73 63 56 53 52 49 48 45 40 36 37
31 38 44 34 26 26 33 29 36 39 32 30 22 10 10 29 28 31 34 37 38 38 37 36 33 34 32 30 33 54 68 70 74 67 63 62 51 49 45 41 40 36 32 30
25 30 36 32 41 32 23 25 18 25 17 14 15 20 29 35 36 37 40 45 44 43 40 37 33 34 34 31 36 44 49 49 63 67 61 64 52 46 45 44 39 40 37 34
26 35 40 24 26 27 26 10 15 11 10 13 17 20 27 30 35 38 39 39 38 39 39 37 36 34 36 32 34 37 50 54 53 54 48 51 53 48 45 42 41 38 35 29
32 28 26 14 32 26 26 27 20 16 25 25 25 28 31 35 35 34 33 37 40 41 40 38 37 36 39 34 30 39 42 52 55 48 50 55 50 41 35 36 37 33 30 27
33 34 45 49 27 38 34 16 19 19 30 28 29 29 33 33 31 34 38 41 44 47 44 41 42 40 39 40 32 37 49 59 58 61 63 64 64 55 38 28 41 34 28 22
34 37 47 45 45 39 16 13 24 33 34 31 32 34 36 38 36 38 42 46 47 50 50 46 44 45 41 47 34 43 44 54 65 82 92 88 76 68 31 48 64 19 17 17
26 37 40 40 41 37 32 37 40 40 42 41 40 41 41 42 40 43 49 51 53 54 54 53 46 52 40 46 40 44 54 62 66 66 73 67 60 49 26 45 60 56 31 25
40 43 48 52 52 57 54 48 48 57 58 56 55 49 47 44 43 43 51 58 61 64 61 56 55 54 44 39 46 56 58 67 61 39 54 20 23 15 18 77 73 64 37 24
51 54 61 57 61 57 53 54 50 46 51 54 52 47 45 41 37 43 48 53 58 61 61 56 57 53 45 37 51 58 70 72 59 53 21 26 25 5 57 72 47 34 31 24
46 54 64 67 64 64 60 56 55 59 54 53 51 44 39 28 36 35 39 44 49 52 58 54 48 46 39 38 56 60 66 58 53 52 34 20 31 46 38 34 31 30 20 21
62 53 51 44 57 66 60 56 57 58 48 47 42 34 16 21 25 33 41 49 49 47 44 48 44 46 34 33 36 47 54 53 60 55 42 61 40 39 44 35 28 29 23 23
61 39 41 36 54 65 47 44 44 38 37 35 25 11 17 19 18 32 44 45 42 47 43 42 39 36 43 34 39 48 53 49 35 35 43 49 48 45 37 32 38 31 23 29
37 44 45 38 44 43 49 28 13 11 18 13 12 22 24 23 23 39 45 44 38 26 38 36 42 45 49 48 50 49 51 52 48 47 46 46 44 36 34 38 32 31 31 33
37 36 43 39 47 38 37 17 16 12 10 6 11 15 29 34 27 30 39 38 20 18 34 41 28 59 55 56 51 48 51 53 50 47 44 49 36 36 34 32 33 33 29 27
46 42 35 36 34 37 41 30 22 21 19 17 18 20 18 22 23 23 23 16 10 13 30 22 24 23 66 56 54 51 49 47 43 45 44 44 43 43 40 41 35 32 35 36
41 35 35 32 35 32 29 28 26 25 25 23 21 25 19 17 16 12 1 10 20 20 18 25 46 56 45 52 51 49 45 48 46 44 43 51 46 44 48 45 45 44 43 36
40 41 37 34 33 33 29 28 28 28 28 26 25 24 22 16 9 19 12 9 15 21 23 34 45 54 49 46 47 50 47 48 48 48 47 54 58 54 50 45 40 35 31 28
42 42 41 37 35 35 31 30 28 27 30 28 26 23 21 18 15 19 16 19 20 29 25 40 43 42 49 45 51 52 52 54 52 53 54 54 47 43 39 37 36 33 30 27
47 44 41 37 34 36 33 30 28 31 30 27 25 19 17 15 19 15 19 28 31 33 45 38 38 51 44 52 54 51 55 59 57 51 54 47 43 41 37 34 32 29 26 22
41 40 38 34 31 31 29 28 27 28 22 24 18 13 12 15 25 27 31 37 35 29 39 44 42 40 45 54 54 52 51 50 51 49 48 44 40 37 33 30 26 22 21 19
39 33 31 29 29 28 24 25 24 23 21 17 11 11 14 25 30 33 37 36 27 30 45 49 36 36 40 39 42 43 50 53 50 47 42 38 35 31 28 25 22 21 19 17
24 23 23 23 22 21 23 23 20 21 17 11 10 19 18 29 32 34 39 32 34 37 37 36 40 40 43 53 52 49 44 43 43 41 39 36 31 26 22 19 17 16 15 14
Wind_Direction_500mb
282 284 293 281 282 289 250 263 276 280 267 219 235 111 87 351 31 31 42 35 30 10 349 343 222 215 218 215 217 210 212 216 220 221 219 221 224 222 221 220 232 226 228 231
275 286 282 280 265 275 266 272 267 271 281 294 306 132 191 53 349 348 32 18 11 11 4 346 316 259 232 227 218 219 211 214 216 224 217 218 219 227 223 216 218 223 219 229
283 287 272 253 256 249 263 274 264 258 260 263 282 327 122 84 308 354 7 358 351 347 349 342 324 285 252 237 224 219 222 214 212 220 221 218 222 224 219 215 209 214 212 221
275 279 269 275 281 277 267 274 271 269 267 280 255 283 286 288 295 314 323 331 331 326 322 321 322 311 270 246 246 225 221 218 217 220 221 216 219 221 215 211 204 206 209 210
262 262 271 273 275 279 256 267 273 272 274 275 280 200 266 271 285 306 314 319 316 314 312 310 315 317 298 260 237 229 220 222 222 221 221 212 211 217 215 208 197 200 202 208
258 260 265 278 306 329 335 295 283 262 283 274 264 269 271 1 335 321 313 310 308 304 304 303 301 306 305 273 247 229 220 218 219 219 221 212 209 213 209 210 199 192 199 212
249 253 262 269 277 283 250 280 348 351 341 336 315 333 329 316 313 313 312 305 302 295 292 292 292 296 299 284 257 240 224 220 220 215 215 215 204 207 209 204 211 190 201 206
249 257 266 282 276 251 281 324 258 306 298 291 295 295 294 294 295 300 305 308 308 303 294 286 285 286 287 283 261 251 239 241 215 214 204 201 200 200 202 205 207 209 200 200
286 296 318 332 304 291 295 312 291 288 297 307 289 297 305 298 292 294 298 306 310 307 301 289 284 281 278 276 258 238 234 228 211 208 194 201 187 185 198 212 209 219 208 209
281 276 289 296 295 300 273 256 301 288 279 290 299 304 301 294 289 290 294 299 305 304 300 292 285 281 275 271 257 236 227 222 206 189 177 176 175 172 175 344 269 222 209 216
285 283 282 280 289 287 259 255 270 273 282 283 287 290 290 288 285 285 290 294 298 297 294 288 282 279 271 268 246 227 212 205 195 190 187 182 180 184 180 358 325 225 208 199
280 302 303 296 295 291 277 270 272 276 278 282 279 279 282 277 279 286 289 291 291 291 287 284 277 273 272 261 227 221 203 197 186 183 179 181 180 189 257 278 265 247 225 218
318 308 294 289 277 275 272 272 272 272 272 272 273 270 274 272 278 286 291 290 287 285 281 276 265 268 262 243 234 215 197 191 187 177 176 178 196 300 218 226 225 227 213 223
306 303 292 283 282 273 268 268 272 274 275 272 270 266 269 269 282 291 293 291 288 279 275 267 259 253 251 234 212 190 195 196 170 161 147 140 129 105 223 205 191 174 175 172
304 292 289 285 278 267 265 264 266 263 268 270 260 258 258 271 285 295 302 307 296 280 270 259 254 243 236 220 193 194 207 180 177 168 153 225 156 202 191 169 159 155 141 126
312 296 286 287 300 282 255 250 253 258 264 259 251 252 228 271 291 304 312 299 294 289 264 255 248 225 203 195 195 173 168 170 175 172 171 189 197 196 174 154 138 123 109 110
332 318 321 317 275 279 272 263 259 260 253 246 250 242 244 263 293 305 320 315 306 290 274 257 236 210 190 163 173 168 160 157 164 148 138 153 157 162 156 143 135 125 136 130
330 333 329 324 315 322 309 304 20 275 266 315 265 234 246 252 283 313 325 323 313 303 264 256 216 182 158 154 150 144 142 142 144 145 146 150 146 140 132 139 132 125 117 129
310 318 327 322 326 317 327 341 3 333 321 322 288 269 255 258 278 308 324 321 306 14 243 271 244 165 147 141 138 139 140 140 138 139 137 136 136 141 143 141 131 125 127 120
301 303 307 314 322 306 316 327 344 336 334 334 318 308 295 273 257 266 324 350 0 338 154 176 169 136 120 129 131 131 132 133 132 130 134 135 130 132 130 130 128 123 123 121
304 302 295 295 297 301 302 309 322 321 321 321 313 298 286 286 245 222 342 56 76 62 131 132 119 123 103 113 123 126 128 128 129 126 122 122 123 122 121 117 115 116 114 115
306 305 299 289 286 290 295 305 309 309 309 310 309 301 294 275 198 196 156 89 96 115 115 123 121 122 119 117 115 117 121 124 125 124 124 120 117 118 116 118 115 113 115 113
303 298 298 285 280 282 289 293 296 298 302 305 304 295 280 265 185 159 165 169 131 139 128 132 129 128 117 118 123 121 121 121 121 122 122 119 121 120 121 120 117 111 104 97
299 285 288 289 282 284 279 286 288 290 297 298 300 286 258 234 169 159 167 158 158 141 154 150 136 143 124 126 124 124 119 122 122 125 122 124 120 118 116 110 104 101 95 88
300 283 281 278 271 268 274 279 285 299 292 295 296 243 216 191 160 144 139 145 143 155 159 147 139 123 121 128 132 132 131 131 127 118 120 121 120 117 115 110 103 98 86 73
296 274 270 267 256 262 275 280 286 292 293 294 290 207 184 162 142 151 148 145 145 146 150 145 146 134 128 127 129 128 131 127 126 128 124 119 114 108 104 99 91 79 75 78
286 265 263 268 262 259 266 270 272 281 281 269 239 175 165 153 142 136 137 134 133 138 129 144 148 143 143 139 128 128 129 123 121 120 122 125 118 109 99 88 84 84 83 81
Wind_Speed_850mb
34 38 31 24 36 38 27 30 38 38 36 26 20 18 17 4 19 15 21 27 27 24 27 22 14 37 40 46 46 48 51 51 54 51 47 45 46 46 43 44 42 40 40 41
40 43 32 47 34 39 39 37 35 38 43 37 24 18 10 11 15 17 14 20 21 23 21 18 15 19 36 44 48 50 59 57 52 56 50 53 51 47 43 42 38 37 38 39
34 36 34 40 41 41 38 44 36 37 39 31 30 23 10 2 12 15 15 20 21 21 21 20 20 20 28 43 50 60 60 69 63 63 60 59 54 48 44 42 39 40 38 38
28 33 42 36 37 33 36 35 42 38 37 37 26 17 12 14 22 11 18 23 24 25 26 28 28 27 29 29 46 56 60 70 72 68 60 57 55 49 47 45 42 40 36 34
28 32 41 43 34 27 28 38 39 42 44 58 38 11 11 29 19 4 20 28 28 30 33 35 33 31 29 28 39 54 63 71 77 73 63 56 53 52 49 48 45 40 36 37
31 38 44 34 26 26 33 29 36 39 32 30 22 10 10 29 28 31 34 37 38 38 37 36 33 34 32 30 33 54 68 70 74 67 63 62 51 49 45 41 40 36 32 30
25 30 36 32 41 32 23 25 18 25 17 14 15 20 29 35 36 37 40 45 44 43 40 37 33 34 34 31 36 44 49 49 63 67 61 64 52 46 45 44 39 40 37 34
26 35 40 24 26 27 26 10 15 11 10 13 17 20 27 30 35 38 39 39 38 39 39 37 36 34 36 32 34 37 50 54 53 54 48 51 53 48 45 42 41 38 35 29
32 28 26 14 32 26 26 27 20 16 25 25 25 28 31 35 35 34 33 37 40 41 40 38 37 36 39 34 30 39 42 52 55 48 50 55 50 41 35 36 37 33 30 27
33 34 45 49 27 38 34 16 19 19 30 28 29 29 33 33 31 34 38 41 44 47 44 41 42 40 39 40 32 37 49 59 58 61 63 64 64 55 38 28 41 34 28 22
34 37 47 45 45 39 16 13 24 33 34 31 32 34 36 38 36 38 42 46 47 50 50 46 44 45 41 47 34 43 44 54 65 82 92 88 76 68 31 48 64 19 17 17
26 37 40 40 41 37 32 37 40 40 42 41 40 41 41 42 40 43 49 51 53 54 54 53 46 52 40 46 40 44 54 62 66 66 73 67 60 49 26 45 60 56 31 25
40 43 48 52 52 57 54 48 48 57 58 56 55 49 47 44 43 43 51 58 61 64 61 56 55 54 44 39 46 56 58 67 61 39 54 20 23 15 18 77 73 64 37 24
51 54 61 57 61 57 53 54 50 46 51 54 52 47 45 41 37 43 48 53 58 61 61 56 57 53 45 37 51 58 70 72 59 53 21 26 25 5 57 72 47 34 31 24
46 54 64 67 64 64 60 56 55 59 54 53 51 44 39 28 36 35 39 44 49 52 58 54 48 46 39 38 56 60 66 58 53 52 34 20 31 46 38 34 31 30 20 21
62 53 51 44 57 66 60 56 57 58 48 47 42 34 16 21 25 33 41 49 49 47 44 48 44 46 34 33 36 47 54 53 60 55 42 61 40 39 44 35 28 29 23 23
61 39 41 36 54 65 47 44 44 38 37 35 25 11 17 19 18 32 44 45 42 47 43 42 39 36 43 34 39 48 53 49 35 35 43 49 48 45 37 32 38 31 23 29
37 44 45 38 44 43 49 28 13 11 18 13 12 22 24 23 23 39 45 44 38 26 38 36 42 45 49 48 50 49 51 52 48 47 46 46 44 36 34 38 32 31 31 33
37 36 43 39 47 38 37 17 16 12 10 6 11 15 29 34 27 30 39 38 20 18 34 41 28 59 55 56 51 48 51 53 50 47 44 49 36 36 34 32 33 33 29 27
46 42 35 36 34 37 41 30 22 21 19 17 18 20 18 22 23 23 23 16 10 13 30 22 24 23 66 56 54 51 49 47 43 45 44 44 43 43 40 41 35 32 35 36
41 35 35 32 35 32 29 28 26 25 25 23 21 25 19 17 16 12 1 10 20 20 18 25 46 56 45 52 51 49 45 48 46 44 43 51 46 44 48 45 45 44 43 36
40 41 37 34 33 33 29 28 28 28 28 26 25 24 22 16 9 19 12 9 15 21 23 34 45 54 49 46 47 50 47 48 48 48 47 54 58 54 50 45 40 35 31 28
42 42 41 37 35 35 31 30 28 27 30 28 26 23 21 18 15 19 16 19 20 29 25 40 43 42 49 45 51 52 52 54 52 53 54 54 47 43 39 37 36 33 30 27
47 44 41 37 34 36 33 30 28 31 30 27 25 19 17 15 19 15 19 28 31 33 45 38 38 51 44 52 54 51 55 59 57 51 54 47 43 41 37 34 32 29 26 22
41 40 38 34 31 31 29 28 27 28 22 24 18 13 12 15 25 27 31 37 35 29 39 44 42 40 45 54 54 52 51 50 51 49 48 44 40 37 33 30 26 22 21 19
39 33 31 29 29 28 24 25 24 23 21 17 11 11 14 25 30 33 37 36 27 30 45 49 36 36 40 39 42 43 50 53 50 47 42 38 35 31 28 25 22 21 19 17
24 23 23 23 22 21 23 23 20 21 17 11 10 19 18 29 32 34 39 32 34 37 37 36 40 40 43 53 52 49 44 43 43 41 39 36 31 26 22 19 17 16 15 14
Wind_Direction_850mb
282 284 293 281 282 289 250 263 276 280 267 219 235 111 87 351 31 31 42 35 30 10 349 343 222 215 218 215 217 210 212 216 220 221 219 221 224 222 221 220 232 226 228 231
275 286 282 280 265 275 266 272 267 271 281 294 306 132 191 53 349 348 32 18 11 11 4 346 316 259 232 227 218 219 211 214 216 224 217 218 219 227 223 216 218 223 219 229
283 287 272 253 256 249 263 274 264 258 260 263 282 327 122 84 308 354 7 358 351 347 349 342 324 285 252 237 224 219 222 214 212 220 221 218 222 224 219 215 209 214 212 221
275 279 269 275 281 277 267 274 271 269 267 280 255 283 286 288 295 314 323 331 331 326 322 321 322 311 270 246 246 225 221 218 217 220 221 216 219 221 215 211 204 206 209 210
262 262 271 273 275 279 256 267 273 272 274 275 280 200 266 271 285 306 314 319 316 314 312 310 315 317 298 260 237 229 220 222 222 221 221 212 211 217 215 208 197 200 202 208
258 260 265 278 306 329 335 295 283 262 283 274 264 269 271 1 335 321 313 310 308 304 304 303 301 306 305 273 247 229 220 218 219 219 221 212 209 213 209 210 199 192 199 212
249 253 262 269 277 283 250 280 348 351 341 336 315 333 329 316 313 313 312 305 302 295 292 292 292 296 299 284 257 240 224 220 220 215 215 215 204 207 209 204 211 190 201 206
249 257 266 282 276 251 281 324 258 306 298 291 295 295 294 294 295 300 305 308 308 303 294 286 285 286 287 283 261 251 239 241 215 214 204 201 200 200 202 205 207 209 200 200
286 296 318 332 304 291 295 312 291 288 297 307 289 297 305 298 292 294 298 306 310 307 301 289 284 281 278 276 258 238 234 228 211 208 194 201 187 185 198 212 209 219 208 209
281 276 289 296 295 300 273 256 301 288 279 290 299 304 301 294 289 290 294 299 305 304 300 292 285 281 275 271 257 236 227 222 206 189 177 176 175 172 175 344 269 222 209 216
285 283 282 280 289 287 259 255 270 273 282 283 287 290 290 288 285 285 290 294 298 297 294 288 282 279 271 268 246 227 212 205 195 190 187 182 180 184 180 358 325 225 208 199
280 302 303 296 295 291 277 270 272 276 278 282 279 279 282 277 279 286 289 291 291 291 287 284 277 273 272 261 227 221 203 197 186 183 179 181 180 189 257 278 265 247 225 218
318 308 294 289 277 275 272 272 272 272 272 272 273 270 274 272 278 286 291 290 287 285 281 276 265 268 262 243 234 215 197 191 187 177 176 178 196 300 218 226 225 227 213 223
306 303 292 283 282 273 268 268 272 274 275 272 270 266 269 269 282 291 293 291 288 279 275 267 259 253 251 234 212 190 195 196 170 161 147 140 129 105 223 205 191 174 175 172
304 292 289 285 278 267 265 264 266 263 268 270 260 258 258 271 285 295 302 307 296 280 270 259 254 243 236 220 193 194 207 180 177 168 153 225 156 202 191 169 159 155 141 126
312 296 286 287 300 282 255 250 253 258 264 259 251 252 228 271 291 304 312 299 294 289 264 255 248 225 203 195 195 173 168 170 175 172 171 189 197 196 174 154 138 123 109 110
332 318 321 317 275 279 272 263 259 260 253 246 250 242 244 263 293 305 320 315 306 290 274 257 236 210 190 163 173 168 160 157 164 148 138 153 157 162 156 143 135 125 136 130
330 333 329 324 315 322 309 304 20 275 266 315 265 234 246 252 283 313 325 323 313 303 264 256 216 182 158 154 150 144 142 142 144 145 146 150 146 140 132 139 132 125 117 129
310 318 327 322 326 317 327 341 3 333 321 322 288 269 255 258 278 308 324 321 306 14 243 271 244 165 147 141 138 139 140 140 138 139 137 136 136 141 143 141 131 125 127 120
301 303 307 314 322 306 316 327 344 336 334 334 318 308 295 273 257 266 324 350 0 338 154 176 169 136 120 129 131 131 132 133 132 130 134 135 130 132 130 130 128 123 123 121
304 302 295 295 297 301 302 309 322 321 321 321 313 298 286 286 245 222 342 56 76 62 131 132 119 123 103 113 123 126 128 128 129 126 122 122 123 122 121 117 115 116 114 115
306 305 299 289 286 290 295 305 309 309 309 310 309 301 294 275 198 196 156 89 96 115 115 123 121 122 119 117 115 117 121 124 125 124 124 120 117 118 116 118 115 113 115 113
303 298 298 285 280 282 289 293 296 298 302 305 304 295 280 265 185 159 165 169 131 139 128 132 129 128 117 118 123 121 121 121 121 122 122 119 121 120 121 120 117 111 104 97
299 285 288 289 282 284 279 286 288 290 297 298 300 286 258 234 169 159 167 158 158 141 154 150 136 143 124 126 124 124 119 122 122 125 122 124 120 118 116 110 104 101 95 88
300 283 281 278 271 268 274 279 285 299 292 295 296 243 216 191 160 144 139 145 143 155 159 147 139 123 121 128 132 132 131 131 127 118 120 121 120 117 115 110 103 98 86 73
296 274 270 267 256 262 275 280 286 292 293 294 290 207 184 162 142 151 148 145 145 146 150 145 146 134 128 127 129 128 131 127 126 128 124 119 114 108 104 99 91 79 75 78
286 265 263 268 262 259 266 270 272 281 281 269 239 175 165 153 142 136 137 134 133 138 129 144 148 143 143 139 128 128 129 123 121 120 122 125 118 109 99 88 84 84 83 81